Marianna, FL

5:54 AM CST on February 20, 2017 (GMT -0600)
Marianna Municipal

Weather History for KMAI - April, 2013

Change the Weather History Date:

Saturday, April 27, 2013

  Actual Average Record
Temperature  
Mean Temperature 71 °F 70 °F  
Max Temperature 85 °F 83 °F 93 °F (2011)
Min Temperature 57 °F 57 °F 46 °F (2001)
Degree Days  
Heating Degree Days 0    
Month to date heating degree days 47  
Since 1 July heating degree days 1356  
Cooling Degree Days 6    
Month to date cooling degree days 86  
Year to date cooling degree days 157  
Growing Degree Days 20 (Base 50)    
Moisture  
Dew Point 58 °F    
Average Humidity 66    
Maximum Humidity 84    
Minimum Humidity 47    
Precipitation  
Precipitation 0.00 in 0.06 in 1.06 in (1997)
Month to date precipitation 2.90 3.55  
Year to date precipitation 19.75 19.07  
Sea Level Pressure  
Sea Level Pressure 30.17 in    
Wind  
Wind Speed 5 mph (SE)    
Max Wind Speed 14 mph    
Max Gust Speed 20 mph    
Visibility 10 miles    
Events      
T = Trace of Precipitation, MM = Missing Value Source: NWS Daily Summary

Daily Weather History Graph

Daily Weather History Graph

Search for Another Location

Airport or City:

Trip Planner

Search our weather history database for the weather conditions in past years. The results will help you decide how hot, cold, wet, or windy it might be!

Date:

Astronomy

Apr. 27, 2013 Rise Set
Actual Time 6:00 AM CDT 7:16 PM CDT
Civil Twilight 5:34 AM CDT 7:42 PM CDT
Nautical Twilight 5:04 AM CDT 8:12 PM CDT
Astronomical Twilight 4:33 AM CDT 8:44 PM CDT
Moon 9:38 PM CDT (4/27) 7:24 AM CDT (4/27)
Length of Visible Light 14h 07m
Length of Day
13h 16m
Waning Gibbous, 95% of the Moon is Illuminated
Apr 27
Waning Gibbous
May 2
Last Quarter
May 9
New
May 17
First Quarter
May 24
Full

Hourly Weather History & Observations

Time (CDT) Temp. Heat Index Dew Point Humidity Pressure Visibility Wind Dir Wind Speed Gust Speed Precip Events Conditions
12:53 AM 61.0 °F - 53.1 °F 75% 30.24 in 10.0 mi ESE 3.5 mph - N/A   Clear
1:53 AM 62.1 °F - 53.1 °F 72% 30.23 in 10.0 mi Calm Calm - N/A   Clear
2:53 AM 59.0 °F - 53.1 °F 81% 30.22 in 10.0 mi Calm Calm - N/A   Clear
3:53 AM 62.1 °F - 55.9 °F 80% 30.21 in 10.0 mi ESE 3.5 mph - N/A   Clear
4:53 AM 64.0 °F - 57.0 °F 78% 30.21 in 10.0 mi East 3.5 mph - N/A   Mostly Cloudy
5:53 AM 62.1 °F - 57.0 °F 84% 30.22 in 10.0 mi East 5.8 mph - N/A   Mostly Cloudy
6:53 AM 63.0 °F - 57.0 °F 81% 30.23 in 10.0 mi East 4.6 mph - N/A   Partly Cloudy
7:53 AM 66.0 °F - 57.0 °F 73% 30.24 in 10.0 mi East 6.9 mph - N/A   Clear
8:53 AM 71.1 °F - 59.0 °F 66% 30.23 in 10.0 mi East 8.1 mph - N/A   Clear
9:53 AM 75.9 °F - 61.0 °F 60% 30.23 in 10.0 mi SSE 11.5 mph - N/A   Mostly Cloudy
10:53 AM 78.1 °F - 61.0 °F 56% 30.23 in 10.0 mi Variable 6.9 mph 17.3 mph N/A   Partly Cloudy
2:53 PM 82.9 °F 83.3 °F 61.0 °F 47% 30.13 in 10.0 mi South 10.4 mph - N/A   Partly Cloudy
3:53 PM 82.9 °F 83.2 °F 60.1 °F 46% 30.10 in 10.0 mi South 8.1 mph - N/A   Clear
4:53 PM 82.9 °F 83.2 °F 60.1 °F 46% 30.10 in 10.0 mi South 8.1 mph - N/A   Scattered Clouds
6:53 PM 79.0 °F - 61.0 °F 54% 30.09 in 10.0 mi South 10.4 mph - N/A   Overcast
7:53 PM 75.9 °F - 61.0 °F 60% 30.10 in 10.0 mi South 9.2 mph - N/A   Overcast
8:53 PM 75.0 °F - 60.1 °F 60% 30.12 in 10.0 mi SSW 8.1 mph - N/A   Overcast
9:53 PM 73.0 °F - 59.0 °F 61% 30.13 in 10.0 mi Calm Calm - N/A   Overcast
10:53 PM 70.0 °F - 61.0 °F 73% 30.10 in 10.0 mi Calm Calm - N/A   Mostly Cloudy
11:53 PM 66.9 °F - 61.0 °F 81% 30.09 in 10.0 mi Calm Calm - N/A   Clear